Regional Weather Roundup
Issued by NWS

Home | Current Version | Previous Version | Text Only | Print | Product List | Glossary Off
Versions: 1 2 3 4 5 6 7 8 9 10 11 12 13 14 15 16 17 18 19 20 21 22 23 24 25 26 27 28 29 30 31 32 33 34 35 36 37 38 39 40 41 42 43 44 45 46 47 48 49 50

000
ASUS43 KLOT 210403
RWRIL

ILLINOIS REGIONAL WEATHER ROUNDUP
NATIONAL WEATHER SERVICE CHICAGO/ROMEOVILLE IL
1000 PM CST FRI JAN 20 2017

NOTE: "FAIR" INDICATES FEW OR NO CLOUDS BELOW 12,000 FEET WITH NO
SIGNIFICANT WEATHER AND/OR OBSTRUCTIONS TO VISIBILITY.

* THESE STATIONS ARE NOT UNDER NWS QUALITY CONTROL. THEY ALSO MAY NOT
  REPORT WEATHER SUCH AS PRECIPITATION OR FOG.

ILZ001-002-007-009-015-016-024-210500-
NORTHWEST ILLINOIS

CITY           SKY/WX    TMP DP  RH WIND       PRES   REMARKS
MOLINE         FOG       42  40  92 E9        29.56F VSB 1/2
STERLING*      FOG       38  38 100 E3        29.60F VSB 1/4
SAVANNA*       FOG       39  38  99 NE5       29.59F VSB 1/2
$$

ILZ003-004-008-010-011-017-018-210500-
NORTH CENTRAL ILLINOIS

CITY           SKY/WX    TMP DP  RH WIND       PRES   REMARKS
ROCKFORD       DRZL/FOG  40  39  97 E3        29.62F VSB 1/4
FREEPORT*      FOG       36  36 100 E3        29.62S VSB 1/4
ROCHELLE*      DRZL/FOG  39  39 100 SE6       29.62S VSB 1/2
DE KALB*       SNOW      41  41 100 SE7       29.62F VSB 1/4
$$

ILZ005-006-012>014-019>023-210500-
NORTHEAST ILLINOIS

CITY           SKY/WX    TMP DP  RH WIND       PRES   REMARKS
CHICAGO-OHARE  DRZL/FOG  42  42 100 SE6       29.63F VSB 3/4
CHICAGO-MIDWAY DRIZZLE   44  43  96 SE7       29.64F FOG
AURORA         LGT RAIN  44  42  93 SE6       29.62F VSB 1/4
LANSING*       DRIZZLE   46  46 100 SE6       29.65F
JOLIET*        CLOUDY    47  47 100 SE6       29.63F FOG
WAUKEGAN       FOG       38  38 100 E5        29.64F VSB 1/4 WCI  34
DUPAGE AIRPORT LGT RAIN  44  42  93 SE6       29.62F FOG
WHEELING       FOG       38  38 100 CALM      29.65F VSB 1/4
MORRIS*        CLOUDY    46  45  97 SE8       29.61F FOG
ROMEOVILLE*    CLOUDY    45  45 100 SE7       29.63F FOG
NORTHERLY ISL    N/A     38  37  97 CALM        N/A
$$

LMZ740>746-210500-
SOUTHERN LAKE MICHIGAN

STATION/POSITION SKY/WX   TEMP    WIND        PRES    VSBY  WAVE
                          AIR SEA DIR/SP/G                  HT/PER
                          (F)     (DEG/KT/KT) (MB)    (MI)  (FT/S)
HARRISON CRIB              39     170/  6/  6   N/A
BURNHAM HARBOR             38      CALM  /  1   N/A
CALUMET HARBOR             40     160/  3/  4 1003.9F
BURNS HARBOR               48     150/  9/ 13 1005.4S
MICHIGAN CITY              47     130/  8/ 10   N/A
$$

ILZ025>027-034>036-040-047-049-050-058-095>099-210500-
WEST-CENTRAL ILLINOIS

CITY           SKY/WX    TMP DP  RH WIND       PRES   REMARKS
QUINCY         CLOUDY    48  47  96 SE12      29.53F FOG
GALESBURG*     FOG       45  45 100 SE6       29.56F VSB 1/4
MACOMB*        FOG       45  45 100 SE7       29.57F VSB 1/4
JACKSONVILLE*  PTCLDY    48  47  98 E8        29.57F FOG
PITTSFIELD*    CLOUDY    48  48 100 SE7       29.57S FOG
$$

ILZ028>032-037-038-041>044-048-051>054-059>061-210500-
CENTRAL ILLINOIS

CITY           SKY/WX    TMP DP  RH WIND       PRES   REMARKS
BLOOMINGTON    CLOUDY    49  48  97 S10       29.62S FOG
DECATUR        CLOUDY    53  52  96 S14       29.62S
PEORIA         MOCLDY    47  46  97 CALM      29.58F FOG
SPRINGFIELD    MOCLDY    54  51  90 S13       29.60F
TAYLORVILLE    MOCLDY    52  50  93 S9        29.61F
$$

ILZ033-039-045-046-055>057-062-063-210500-
EAST-CENTRAL ILLINOIS

CITY           SKY/WX    TMP DP  RH WIND       PRES   REMARKS
CHAMPAIGN      CLOUDY    52  49  89 S14       29.64S
MATTOON        CLOUDY    54  50  86 S10       29.64S
$$

ILZ079-100>102-210500-
SOUTHWEST ILLINOIS

CITY           SKY/WX    TMP DP  RH WIND       PRES   REMARKS
ALTON          CLEAR     54  50  87 SE13G18   29.59F
BELLEVILLE     CLEAR     54  54 100 VRB5      29.59F
CAHOKIA*       CLEAR     53  49  86 S8        29.59S
SPARTA*        CLEAR     56  52  86 S13G18    29.63R
$$

ILZ064>066-069>071-074>076-080>082-084>086-088>090-092>094-210500-
SOUTH-CENTRAL ILLINOIS

CITY           SKY/WX    TMP DP  RH WIND       PRES   REMARKS
CARBONDALE     CLEAR     54  52  93 SE7       29.65R
CAIRO*         CLEAR     56  52  88 S7        29.67R
MARION         CLEAR     55  55 100 S8        29.67R
MT. VERNON     CLEAR     52  50  93 S6        29.65S
CENTRALIA*     CLEAR     53  52  96 S9        29.63S
SALEM*         CLEAR     55  51  86 S8        29.64S
$$

ILZ067-068-072-073-078-083-087-091-210500-
SOUTHEAST ILLINOIS

CITY           SKY/WX    TMP DP  RH WIND       PRES   REMARKS
LAWRENCEVILLE  CLOUDY    51  51 100 S6        29.68F
FLORA*         PTCLDY    53  51  91 S7        29.65F
HARRISBURG*    CLEAR     56  53  88 S8        29.67S
ROBINSON*      MOCLDY    52  51  94 S8        29.69S
CARMI*         CLEAR     50  50 100 SE9       29.67S
$$

ABBREVIATIONS USED IN REMARKS
   TC - TEMPERATURE IN CELSIUS
  WCI - WIND CHILL INDEX
   HX - HEAT INDEX
  VSB - VISIBILITY
$$




USA.gov is the U.S. government's official web portal to all federal, state and local government web resources and services.